Location: Estouilly
(49.7519°N, 3.0827°E)
Time: 05:28:09
(UTC+00:00)

Daily predictions for brighter satellites

Satellite Brightness Start Highest point End
(mag) Time Altitude Azimuth Time Altitude Azimuth Time Altitude Azimuth
SL-16 R/B 3.9 00:12:19 32° NE 00:12:19 32° NE 00:17:09 10° N
Cosmos 1943 Rocket 4.0 00:17:16 28° N 00:17:16 28° N 00:20:02 10° NNE
COSMOS 2455 4.5 00:18:59 29° NNW 00:18:59 29° NNW 00:23:31 10° NNE
CZ-2D R/B 4.4 00:18:53 10° NE 00:20:45 17° ENE 00:20:45 17° ENE
Cosmos 2297 Rocket 3.9 00:24:22 10° NNW 00:28:49 28° NE 00:28:49 28° NE
Resurs 1-4 Rocket 4.2 00:32:34 10° NE 00:34:54 21° ENE 00:34:54 21° ENE
Cosmos 2369 Rocket 3.8 00:41:06 31° N 00:41:06 31° N 00:44:13 10° NNE
NOSS 3-1 (A) 4.4 00:32:13 10° NW 00:37:40 55° NNW 00:37:40 55° NNW
CZ-4C R/B 3.8 00:47:10 31° NNW 00:47:10 31° NNW 00:52:51 10° NE
Cosmos 2218 Rocket 4.5 01:18:12 10° N 01:24:06 58° ENE 01:24:06 58° ENE
Cosmos 2227 Rocket 3.2 01:21:09 10° NNW 01:25:13 42° N 01:25:13 42° N
Cosmos 2366 rocket 4.4 01:20:49 10° N 01:26:34 58° ENE 01:26:34 58° ENE
Lacrosse 5 4.3 01:32:48 13° E 01:32:48 13° E 01:34:00 10° E
USA 234 3.5 01:27:47 10° E 01:34:13 65° NNE 01:37:43 29° NW
ADEOS II 3.3 01:34:12 10° NNE 01:38:28 36° E 01:38:28 36° E
Cosmos 2181 Rocket 4.1 01:47:57 70° NE 01:47:57 70° NE 01:53:29 10° NNE
SL-16 R/B 3.5 01:57:26 36° NW 01:57:26 36° NW 02:01:11 10° NNW
Cosmos 1943 Rocket 4.4 01:58:47 14° NW 01:59:46 15° NNW 02:02:48 10° N
ARIANE 5 R/B 4.0 01:56:37 10° NE 02:01:05 29° E 02:01:51 28° ESE
IRS-1D 4.0 01:57:00 10° NNE 02:01:47 60° ENE 02:01:47 60° ENE
CZ-2D R/B 2.8 01:58:05 10° N 02:02:04 48° N 02:02:04 48° N
ATLAS 5 CENTAUR R/B 2.9 02:07:56 39° NNE 02:07:56 39° NNE 02:11:09 10° NE
NPP 4.1 02:04:07 10° N 02:08:28 56° NNW 02:08:28 56° NNW
Cosmos 2297 Rocket 3.7 02:08:10 10° NNW 02:10:32 26° NW 02:10:32 26° NW
CBERS-1 4.3 02:09:25 10° NNE 02:13:59 66° NE 02:13:59 66° NE
Resurs 1-4 Rocket 2.9 02:12:01 10° N 02:15:58 43° NNW 02:15:58 43° NNW
Cosmos 2082 3.8 02:12:22 10° NNW 02:18:05 72° ENE 02:20:24 37° SE
Cosmos 2369 Rocket 4.3 02:22:52 14° NW 02:24:13 15° NNW 02:27:19 10° N
SJ 16-02 4.0 02:24:54 10° N 02:28:06 19° NE 02:31:18 10° E
Meteor 1-25 Rocket 4.5 02:24:29 10° N 02:30:20 68° ENE 02:33:01 33° SSE
Cosmos 1697 Rocket 3.1 02:32:33 47° SSE 02:33:32 53° ESE 02:38:59 10° NE
IRS-P3 4.1 02:29:32 10° NNE 02:34:54 75° ESE 02:35:28 68° SSE
CZ-4C R/B 4.5 02:32:31 10° NW 02:37:33 25° N 02:43:21 10° ENE
Cosmos 1980 Rocket 3.6 02:35:19 23° SSE 02:37:49 33° ESE 02:42:49 10° NE
H-2A R/B 4.0 02:34:03 10° SE 02:37:53 30° ENE 02:41:47 10° N
USA 267 3.2 02:34:11 10° ENE 02:40:45 75° SE 02:42:17 55° SSW
NOSS 2-2 (E) 4.4 02:38:32 10° NW 02:44:04 87° SW 02:51:50 10° SE
Cosmos 2263 Rocket 3.6 02:38:54 10° NNW 02:44:08 38° NE 02:49:24 10° ESE
SL-8 R/B 3.9 02:46:01 62° SE 02:46:01 62° SE 02:50:06 10° ESE
Cosmos 1818 3.7 02:46:11 56° WNW 02:46:31 57° NW 02:51:55 10° NE
ATLAS 2AS CENTAUR R/B 4.3 02:42:53 10° NW 02:49:57 36° NNE 02:56:32 10° E
USA 307 3.8 02:52:25 40° SE 02:52:25 40° SE 02:56:07 10° ENE
NOSS 2-2 (D) 4.4 02:47:05 10° NW 02:52:30 89° WSW 03:00:07 10° SE
Cosmos 1821 Rocket 3.9 02:47:25 10° NNW 02:53:45 78° W 02:56:30 36° S
Cosmos 1470 Rocket 3.5 02:50:41 10° N 02:55:08 85° E 02:55:25 78° SE
USA 308 3.7 02:55:23 42° SE 02:55:23 42° SE 02:59:13 10° ENE
Spot 4 Rocket 4.4 02:52:22 10° NNE 02:57:29 60° ESE 02:59:44 32° S
SL-24 R/B 4.2 02:59:51 62° S 03:00:35 78° WSW 03:05:52 10° NNW
Landsat 5 4.3 03:01:23 10° SSE 03:05:48 54° ENE 03:10:12 10° N
Celestis-02/Orion 38 4.5 03:02:05 10° SSE 03:07:19 67° WSW 03:12:29 10° NW
Cosmos 1934 Rocket 3.9 03:02:42 10° N 03:08:48 84° E 03:14:53 10° S
Cosmos 1777 Rocket 3.9 03:04:13 10° NNW 03:09:25 64° WSW 03:12:06 28° S
Cosmos 2227 Rocket 4.0 03:05:39 10° NW 03:06:57 16° NW 03:06:57 16° NW
Cosmos 1782 3.0 03:10:11 53° SSE 03:10:59 71° E 03:15:01 10° NNE
Cosmos 1238 Rocket 4.1 03:04:20 10° N 03:11:03 80° E 03:17:19 10° SSE
Cosmos 1656 3.9 03:12:05 44° W 03:13:06 49° NW 03:18:29 10° NNE
Lacrosse 5 1.9 03:12:00 50° SSW 03:13:12 69° SE 03:18:16 10° ENE
Cosmos 1515 Rocket 3.5 03:15:08 44° S 03:16:30 85° E 03:20:59 10° N
ADEOS Rocket 4.1 03:10:06 10° SE 03:16:31 47° ENE 03:22:20 10° N
CZ-4B R/B 4.4 03:14:28 10° ESE 03:16:39 17° ENE 03:18:52 10° NNE
CZ-2C R/B 3.2 03:13:29 10° NNE 03:17:12 58° E 03:18:32 35° SSE
USA 234 3.2 03:10:54 10° SE 03:17:20 59° SW 03:23:47 10° WNW
Meteor 1-20 Rocket 4.2 03:12:06 10° NNW 03:17:25 52° W 03:18:42 43° SW
ADEOS II 2.7 03:13:59 10° N 03:18:47 37° WNW 03:19:23 36° W
CZ-4B R/B 4.3 03:15:49 10° N 03:20:19 33° WNW 03:20:43 33° WNW
Nadezhda 3 Rocket 4.0 03:18:38 36° SW 03:21:05 62° WNW 03:27:13 10° N
USA 276 2.5 03:21:38 60° ESE 03:21:38 60° ESE 03:24:26 10° E
SL-08 R/B 4.3 03:26:12 29° WNW 03:26:12 29° WNW 03:29:12 10° NNW
Cosmos 972 Rocket 3.8 03:24:15 44° SW 03:25:45 70° WNW 03:30:41 10° NNE
Cosmos 44 4.0 03:24:49 25° S 03:26:59 44° ESE 03:31:25 10° NE
Cosmos 1356 3.3 03:24:07 10° NNW 03:27:36 88° WSW 03:28:27 48° S
MSX 3.9 03:22:14 10° NNE 03:28:04 83° ESE 03:32:39 17° SSW
Timation 1 Rocket 4.3 03:22:53 10° NW 03:28:50 64° WSW 03:34:45 10° SSE
Cosmos 1328 Rocket 3.9 03:28:49 44° W 03:29:13 45° WNW 03:33:31 10° N
Cosmos 921 Rocket 4.1 03:27:48 13° S 03:31:11 41° ESE 03:35:08 10° NNE
Cosmos 2278 3.7 03:28:10 28° SSW 03:31:22 84° ESE 03:37:07 10° NNE
Cosmos 1605 Rocket 4.1 03:25:09 10° N 03:31:36 82° E 03:38:00 10° S
IDEFIX/ARIANE 42P 2.5 03:26:38 10° N 03:31:53 67° WNW 03:34:28 30° SW
Cosmos 1535 Rocket 4.5 03:26:05 10° NNW 03:32:26 72° W 03:38:47 10° S
Cosmos 1933 Rocket 3.5 03:28:11 10° NNW 03:32:30 58° W 03:34:17 32° SSW
CZ-3B R/B 2.3 03:32:05 42° WNW 03:33:08 64° NNW 03:42:02 10° ENE
Cosmos 1606 4.5 03:34:14 18° NW 03:34:14 18° NW 03:36:05 10° NNW
Cosmos 2228 Rocket 3.3 03:31:12 16° S 03:34:40 69° E 03:39:04 10° NNE
Cosmos 1151 Rocket 3.7 03:37:30 34° WNW 03:37:43 34° WNW 03:41:41 10° N
Cosmos 2369 3.8 03:36:41 32° SW 03:39:20 63° WNW 03:45:03 10° NNE
ARIANE 5 R/B 2.9 03:35:30 10° N 03:40:21 45° WNW 03:42:10 32° WSW
CZ-2D R/B 4.0 03:40:00 10° NNW 03:42:28 13° NW 03:43:22 13° WNW
CZ-4C R/B 3.0 03:42:40 26° S 03:44:31 57° WSW 03:48:04 10° NNW
ALOS 4.5 03:42:54 10° NE 03:46:49 26° E 03:50:42 10° SSE
IRIDIUM 106 4.4 03:42:23 10° N 03:47:39 78° E 03:52:52 10° S
Cosmos 1536 4.4 03:46:27 10° N 03:50:18 39° ENE 03:54:08 10° SE
Cosmos 1869 Rocket 3.5 03:47:08 10° N 03:51:31 89° W 03:55:51 10° S
ATLAS 5 CENTAUR R/B 3.6 03:49:28 14° WNW 03:52:03 21° NNW 03:55:55 10° NNE
Resurs 1-4 Rocket 4.2 03:55:00 10° NW 03:55:47 10° NW 03:56:36 10° WNW
Meteor 1-4 Rocket 3.3 03:53:32 10° S 03:56:53 51° E 04:00:19 10° NNE
USA 305 2.8 03:58:51 28° WSW 04:01:04 84° NNW 04:05:20 10° ENE
X-37B 1.5 04:01:25 29° SW 04:02:11 34° S 04:05:07 10° ESE
CZ-2D R/B 4.4 04:00:09 10° N 04:03:49 31° WNW 04:05:24 23° WSW
USA 306 2.9 04:02:46 26° WSW 04:05:09 81° NNW 04:09:25 10° ENE
SJ 16-02 1.3 04:02:46 10° NNW 04:07:07 63° WSW 04:11:27 10° S
Cosmos 1763 Rocket 4.4 04:02:02 10° S 04:07:09 50° ESE 04:12:17 10° NNE
Cosmos 389 Rocket 3.2 04:06:12 27° WSW 04:07:20 34° WNW 04:10:38 10° N
Cosmos 1727 Rocket 4.2 04:01:01 10° S 04:07:21 79° E 04:13:42 10° NNE
PSLV R/B 3.4 04:04:58 10° NNE 04:09:13 80° WNW 04:13:24 10° SSW
Cosmos 2360 Rocket 4.4 04:07:24 10° SSE 04:11:55 25° ESE 04:16:28 10° NE
ASTEX 1 4.3 04:08:40 10° NNW 04:12:58 29° WNW 04:15:51 17° WSW
H-2A R/B 2.7 04:09:47 10° SSW 04:13:46 35° W 04:17:53 10° NNW
ERS-2 2.3 04:11:04 10° S 04:14:36 48° W 04:18:11 10° NNW
CZ-2C R/B 2.5 04:11:45 10° NNE 04:16:51 77° WNW 04:22:01 10° SSW
Cosmos 1697 Rocket 3.6 04:14:18 18° W 04:17:46 33° NW 04:22:50 10° NNE
NOSS 3-4 (A) 4.1 04:10:59 10° NW 04:17:51 73° NE 04:25:30 10° SE
NOSS 3-4 (C) 4.1 04:11:06 10° NW 04:17:58 73° NE 04:25:36 10° SE
Cosmos 192 4.5 04:14:10 15° SW 04:18:11 55° WNW 04:23:03 10° NNE
Gbstr 26 Del rocket 4.4 04:10:37 10° WNW 04:18:40 69° SSW 04:25:47 10° SE
PAYLOAD A 3.8 04:15:44 10° N 04:20:25 62° WNW 04:25:02 10° SSW
Cosmos 1980 Rocket 2.5 04:17:07 15° SW 04:21:38 50° NW 04:27:09 10° NNE
USA 267 3.6 04:17:18 10° ENE 04:23:41 57° NNW 04:29:37 12° W
FENGYUN 3A 4.4 04:19:08 10° NNE 04:24:28 58° E 04:29:47 10° S
SJ-6F 4.5 04:21:58 10° NNE 04:26:08 83° ESE 04:30:13 10° SSW
Cosmos 990 Rocket 4.0 04:21:38 10° NNW 04:26:46 62° WSW 04:31:53 10° S
Meteor 1-10 Rocket 4.3 04:21:12 10° SSW 04:26:56 69° WNW 04:32:50 10° N
Cosmos 2322 Rocket 2.9 04:21:26 10° S 04:26:57 56° ESE 04:32:32 10° NE
SL-8 R/B 4.3 04:24:00 15° W 04:27:34 39° SSW 04:31:59 10° SE
CZ-4C R/B 4.1 04:21:37 10° NW 04:27:54 40° NNE 04:35:14 10° E
Cosmos 1459 Rocket 4.1 04:21:50 10° N 04:27:59 82° E 04:34:03 10° S
Cosmos 2263 Rocket 2.4 04:22:49 10° NW 04:28:12 45° WSW 04:33:33 10° S
NOSS 3-3 (A) 4.0 04:22:42 10° SW 04:28:33 90° WSW 04:35:17 10° NE
NOSS 3-3 (C) 4.0 04:22:53 10° SW 04:28:41 90° ESE 04:35:22 10° NE
Cosmos 1812 3.1 04:28:00 10° SSW 04:31:39 42° WNW 04:35:21 10° N
Cosmos 468 Rocket 4.1 04:26:25 10° SSW 04:31:44 86° ESE 04:37:02 10° NNE
USA 307 3.1 04:28:36 15° W 04:32:03 64° NNW 04:36:18 10° ENE
SL-16 R/B 2.4 04:28:57 10° SSW 04:34:36 76° ESE 04:40:17 10° NNE
USA 308 3.1 04:31:34 14° W 04:35:10 63° NNW 04:39:24 10° ENE
Cosmos 1844 Rocket 3.5 04:29:38 10° NNW 04:35:12 56° NE 04:40:45 10° SE
Cosmos 1500 4.3 04:32:19 10° NW 04:35:27 24° W 04:38:34 10° SW
COSMO-SKYMED 1 3.3 04:32:12 10° SSE 04:36:28 59° ENE 04:40:46 10° N
SL-4 R/B 4.1 04:34:57 10° SSW 04:38:53 28° SE 04:42:59 10° E
Cosmos 540 Rocket 4.5 04:35:26 10° S 04:40:24 50° ESE 04:45:25 10° NNE
ATLAS CENTAUR R/B 3.4 04:30:36 10° WNW 04:41:01 60° NNE 04:45:03 10° E
Cosmos 1666 3.0 04:37:52 10° NNW 04:41:30 42° W 04:45:06 10° SSW
ATLAS 2AS CENTAUR R/B 3.0 04:34:20 10° NW 04:42:00 82° NE 04:49:01 10° SE
ERBS 2.6 04:43:20 10° SW 04:46:40 63° SE 04:50:00 10° ENE
CZ-4B R/B 1.9 04:45:50 10° SSW 04:48:42 32° W 04:51:39 10° NNW
deb Chang Zheng 4 3.6 04:50:56 10° N 04:55:12 59° WNW 04:59:23 10° SSW
Cosmos 1898 Rocket 3.9 04:50:19 10° NW 04:55:12 40° WSW 05:00:06 10° S
Cosmos 1908 Rocket 4.5 04:51:12 10° N 04:55:36 57° ENE 05:00:00 10° SSE
Lacrosse 5 2.5 04:51:32 10° W 04:56:26 46° NNW 05:01:19 10° NE
USA 276 2.2 04:54:18 10° W 04:57:33 85° N 05:00:46 10° E
Cosmos 2173 Rocket 4.1 04:51:55 10° NNW 04:58:08 63° W 05:04:23 10° S
CZ-4B R/B 3.2 04:55:37 10° NNE 04:59:19 64° E 05:02:54 10° S
CZ-4B R/B 4.0 04:55:10 10° N 04:59:26 77° WNW 05:03:51 10° SSW
BREEZE-M DEB (TANK) 3.3 04:55:55 10° WSW 05:01:32 37° S 05:04:04 10° ESE
ADEOS Rocket 3.6 04:55:50 10° SSW 05:02:08 38° W 05:07:53 10° NNW
